SYRACUSE 4A

Last updated on Sun Nov 16 2025 00:03:44 GMT+0000 (Coordinated Universal Time)

1 49333U 21095B 25319.46093523 .00000142 00000+0 00000+0 0 9996 2 49333 0.0116 299.9762 0001538 285.5153 40.7697 1.00271420 15817
UTC large
Height (km)
Speed (km/s)
/
Latitude / Longitude
Inclination (degrees)
Orbital Period (minutes)
Azimuth
Elevation
Range (km)
Doppler Factor

Next 0 passes for location: London (51.5072 / 0.1276)

Sorry there are no passes over London.